Terug naar catalogus

STARLINK-31044

ActiefCommunicatieVLEO
NORAD 58589·PAYLOAD·🇺🇸 United States

Gelanceerd Dec 19, 2023 vanaf Cape Canaveral Space Force Station

Loading…

Volgende Passages (komende 24 uur)

TLE

VersSource: CelesTrak SupGP

Epoch: Sep 14, 2026, 22:33 UTC

1 58589C 23200A   26257.94006944 -.00006889  00000+0 -24956-3 0  2578
2 58589  43.0007 180.3010 0000979 257.7334  17.9390 15.27577384    19

Volg STARLINK-31044 in realtime met AllMySat

Download on the App Store